Location: Kershaw
(34.5481°N, 80.5823°W)
Time: 15:56:17
(UTC+00:00)

Vanguard 1 Rocket - Pass Details

Date: 09 October 2022
Orbit: 650 x 4225 km, 34.3° (Epoch: 08 December)

Event Time Altitude Azimuth Distance (km) Brightness Sun altitude
Rises 00:17:24 0° 253° (WSW) 8,468 13.6 -17.4°
Reaches altitude 10° 00:23:28 10° 253° (WSW) 7,368 13.0 -18.7°
Maximum altitude 00:48:09 85° 169° (SSE) 3,065 9.9 -23.7°
Enters shadow 00:56:37 34° 84° (E) 3,421 9.7 -25.4°
Drops below altitude 10° 01:01:36 10° 83° (E) 4,408 - -26.4°
Sets 01:04:14 0° 83° (E) 5,064 - -27.0°
